Weather History for KMFI - March, 2013

Change the Weather History Date:

Saturday, March 30, 2013

  Actual Average Record
Temperature  
Mean Temperature 37 °F -  
Max Temperature 41 °F 47 °F 76 °F (1986)
Min Temperature 33 °F 26 °F -6 °F (1969)
Degree Days  
Heating Degree Days 28    
Moisture  
Dew Point 33 °F    
Average Humidity 89    
Maximum Humidity 100    
Minimum Humidity 55    
Precipitation  
Precipitation 0.21 in - - ()
Sea Level Pressure  
Sea Level Pressure 29.91 in    
Wind  
Wind Speed 7 mph (SW)    
Max Wind Speed 14 mph    
Max Gust Speed -    
Visibility 4 miles    
Events Fog , Rain    
Averages and records for this station are not official NWS values.
T = Trace of Precipitation, MM = Missing Value Source: NWS Daily Summary

Daily Weather History Graph

Daily Weather History Graph

Search for Another Location

Airport or City:

Trip Planner

Search our weather history database for the weather conditions in past years. The results will help you decide how hot, cold, wet, or windy it might be!

Date:

Astronomy

Mar. 30, 2013 Rise Set
Actual Time 6:44 AM CDT 7:26 PM CDT
Civil Twilight 6:15 AM CDT 7:55 PM CDT
Nautical Twilight 5:40 AM CDT 8:30 PM CDT
Astronomical Twilight 5:04 AM CDT 9:06 PM CDT
Moon 11:43 PM CDT (3/30) 8:30 AM CDT (3/30)
Length of Visible Light 13h 40m
Length of Day
12h 41m
Waning Gibbous, 86% of the Moon is Illuminated
Mar 30
Waning Gibbous
Apr 2
Last Quarter
Apr 10
New
Apr 18
First Quarter
Apr 25
Full

Hourly Weather History & Observations

Time (CDT) Temp. Windchill Dew Point Humidity Pressure Visibility Wind Dir Wind Speed Gust Speed Precip Events Conditions
12:54 AM 36.0 °F 31.1 °F 21.0 °F 55% 30.18 in 10.0 mi South 5.8 mph - N/A   Overcast
1:54 AM 34.0 °F 26.6 °F 21.9 °F 61% 30.16 in 10.0 mi South 9.2 mph - N/A   Overcast
2:54 AM 35.1 °F 31.0 °F 24.1 °F 64% 30.14 in 10.0 mi South 4.6 mph - N/A   Overcast
3:54 AM 34.0 °F 28.0 °F 24.1 °F 67% 30.11 in 10.0 mi South 6.9 mph - N/A   Overcast
4:54 AM 35.1 °F 27.9 °F 26.1 °F 70% 30.09 in 10.0 mi South 9.2 mph - N/A   Overcast
5:54 AM 35.1 °F 27.9 °F 27.0 °F 72% 30.07 in 10.0 mi South 9.2 mph - 0.00 in Rain Light Rain
6:54 AM 35.1 °F 26.9 °F 27.0 °F 72% 30.04 in 10.0 mi South 11.5 mph - 0.00 in   Overcast
7:54 AM 37.0 °F 28.5 °F 27.0 °F 67% 30.02 in 10.0 mi South 13.8 mph - N/A   Overcast
8:54 AM 37.0 °F 31.6 °F 28.0 °F 70% 30.02 in 5.0 mi South 6.9 mph - 0.00 in Rain Light Rain
9:54 AM 34.0 °F 26.6 °F 30.0 °F 85% 29.99 in 4.0 mi South 9.2 mph - 0.03 in Rain Rain
10:54 AM 36.0 °F 29.0 °F 30.0 °F 79% 29.96 in 8.0 mi South 9.2 mph - 0.03 in Rain Light Rain
11:54 AM 35.1 °F 26.9 °F 30.9 °F 85% 29.95 in 4.0 mi South 11.5 mph - 0.03 in Rain Light Rain
12:49 PM 35.6 °F 28.0 °F 32.0 °F 87% 29.88 in 6.0 mi South 10.4 mph - 0.01 in Rain Light Rain
12:54 PM 36.0 °F 28.0 °F 32.0 °F 86% 29.92 in 5.0 mi South 11.5 mph - 0.01 in Rain Light Rain
1:45 PM 35.6 °F 29.9 °F 33.8 °F 93% 29.85 in 5.0 mi South 6.9 mph - 0.00 in Rain Light Rain
1:54 PM 36.0 °F 30.3 °F 33.1 °F 89% 29.89 in 5.0 mi South 6.9 mph - 0.00 in   Overcast
2:28 PM 39.2 °F 34.2 °F 37.4 °F 93% 29.84 in 3.0 mi SSW 6.9 mph - 0.01 in Rain Light Rain
2:35 PM 39.2 °F 35.0 °F 37.4 °F 93% 29.84 in 4.0 mi SW 5.8 mph - 0.01 in Rain Light Rain
2:54 PM 41.0 °F 38.0 °F 37.0 °F 86% 29.88 in 3.0 mi West 4.6 mph - 0.01 in Rain Light Rain
3:01 PM 39.2 °F 35.9 °F 37.4 °F 93% 29.84 in 2.5 mi West 4.6 mph - 0.01 in Rain Rain
3:17 PM 37.4 °F 32.8 °F 35.6 °F 93% 29.84 in 1.5 mi WNW 5.8 mph - 0.03 in Rain Rain
3:54 PM 39.0 °F 34.8 °F 39.0 °F 100% 29.87 in 1.2 mi SSW 5.8 mph - 0.09 in Rain Light Rain
3:59 PM 39.2 °F 34.2 °F 37.4 °F 93% 29.82 in 1.0 mi South 6.9 mph - 0.00 in Rain Light Rain
4:06 PM 37.4 °F 33.8 °F 37.4 °F 100% 29.82 in 0.5 mi SSW 4.6 mph - 0.00 in Fog , Rain Light Rain
4:19 PM 37.4 °F 32.8 °F 37.4 °F 100% 29.83 in 0.5 mi WNW 5.8 mph - 0.01 in Fog , Rain Light Rain
4:27 PM 39.2 °F 35.9 °F 39.2 °F 100% 29.83 in 0.8 mi West 4.6 mph - 0.01 in Rain Light Rain
4:34 PM 39.2 °F 35.0 °F 39.2 °F 100% 29.83 in 1.0 mi West 5.8 mph - 0.01 in Rain Light Rain
4:41 PM 39.2 °F 35.9 °F 39.2 °F 100% 29.82 in 0.5 mi West 4.6 mph - 0.01 in Fog , Rain Light Rain
4:54 PM 39.0 °F 34.0 °F 39.0 °F 100% 29.86 in 0.5 mi WSW 6.9 mph - 0.01 in Fog , Rain Light Rain
5:54 PM 39.0 °F 34.0 °F 39.0 °F 100% 29.84 in 0.2 mi WSW 6.9 mph - 0.00 in Fog Fog
6:54 PM 37.9 °F 33.5 °F 37.9 °F 100% 29.85 in 0.2 mi West 5.8 mph - N/A Fog Fog
7:54 PM 37.0 °F 31.6 °F 37.0 °F 100% 29.84 in 0.2 mi WNW 6.9 mph - N/A Fog Fog
8:54 PM 36.0 °F 29.6 °F 36.0 °F 100% 29.86 in 0.2 mi NW 8.1 mph - N/A Fog Fog
9:27 PM 35.6 °F 29.9 °F 35.6 °F 100% 29.82 in 1.2 mi WNW 6.9 mph - N/A   Overcast
9:36 PM 35.6 °F 30.7 °F 35.6 °F 100% 29.82 in 2.5 mi NW 5.8 mph - N/A   Overcast
9:54 PM 36.0 °F - 36.0 °F 100% 29.85 in 3.0 mi Calm Calm - N/A   Overcast
10:02 PM 35.6 °F 32.8 °F 35.6 °F 100% 29.81 in 3.0 mi West 3.5 mph - N/A   Overcast
10:54 PM 36.0 °F 30.3 °F 34.0 °F 93% 29.85 in 5.0 mi WNW 6.9 mph - N/A   Overcast
11:34 PM 35.6 °F 31.7 °F 33.8 °F 93% 29.79 in 3.0 mi West 4.6 mph - N/A   Scattered Clouds
11:52 PM 33.8 °F 28.6 °F 33.8 °F 100% 29.79 in 2.5 mi WSW 5.8 mph - N/A   Clear
11:54 PM 34.0 °F 28.8 °F 33.1 °F 96% 29.83 in 2.5 mi WSW 5.8 mph - N/A   Clear